TimeHST,TemperatureF,Dew PointF,Humidity,Sea Level PressureIn,VisibilityMPH,Wind Direction,Wind SpeedMPH,Gust SpeedMPH,PrecipitationIn,Events,Conditions,WindDirDegrees,DateUTC
12:54 AM,68.0,60.1,76,30.00,10.0,Calm,Calm,-,N/A,,Clear,0,2012-11-04 10:54:00
1:54 AM,66.0,59.0,78,29.99,10.0,Calm,Calm,-,N/A,,Clear,0,2012-11-04 11:54:00
2:54 AM,63.0,57.9,84,29.99,10.0,NW,3.5,-,N/A,,Clear,310,2012-11-04 12:54:00
3:54 AM,64.9,59.0,81,29.99,10.0,Calm,Calm,-,N/A,,Clear,0,2012-11-04 13:54:00
4:54 AM,66.0,59.0,78,29.98,10.0,Calm,Calm,-,N/A,,Clear,0,2012-11-04 14:54:00
5:54 AM,64.9,59.0,81,29.99,10.0,Calm,Calm,-,N/A,,Clear,0,2012-11-04 15:54:00
6:54 AM,64.0,59.0,84,30.01,10.0,Calm,Calm,-,N/A,,Partly Cloudy,0,2012-11-04 16:54:00
7:54 AM,75.0,62.1,64,30.01,10.0,Calm,Calm,-,N/A,,Clear,0,2012-11-04 17:54:00
8:54 AM,79.0,61.0,54,30.01,10.0,SE,4.6,-,N/A,,Clear,140,2012-11-04 18:54:00
9:54 AM,81.0,59.0,47,30.02,10.0,Variable,4.6,-,N/A,,Clear,0,2012-11-04 19:54:00
10:54 AM,84.9,59.0,41,30.01,10.0,NNW,8.1,-,N/A,,Scattered Clouds,330,2012-11-04 20:54:00
11:54 AM,81.0,61.0,50,30.00,10.0,NW,9.2,-,N/A,,Scattered Clouds,320,2012-11-04 21:54:00
12:54 PM,80.1,63.0,56,29.99,10.0,NNW,11.5,-,N/A,,Scattered Clouds,330,2012-11-04 22:54:00
1:54 PM,79.0,62.1,56,29.98,10.0,NNW,9.2,-,N/A,,Scattered Clouds,340,2012-11-04 23:54:00
2:54 PM,82.0,60.1,47,29.97,10.0,NNW,10.4,-,N/A,,Scattered Clouds,340,2012-11-05 00:54:00
3:54 PM,81.0,60.1,49,29.97,10.0,North,10.4,-,N/A,,Clear,360,2012-11-05 01:54:00
4:54 PM,79.0,64.9,62,29.97,10.0,NNE,4.6,-,N/A,,Clear,20,2012-11-05 02:54:00
5:54 PM,75.9,64.9,69,29.99,10.0,North,4.6,-,N/A,,Clear,10,2012-11-05 03:54:00
6:54 PM,73.9,64.0,71,30.00,10.0,NNE,3.5,-,N/A,,Clear,20,2012-11-05 04:54:00
7:54 PM,71.1,57.9,63,30.01,10.0,Calm,Calm,-,N/A,,Clear,0,2012-11-05 05:54:00
8:54 PM,72.0,60.1,66,30.01,10.0,NE,4.6,-,N/A,,Clear,40,2012-11-05 06:54:00
9:54 PM,70.0,63.0,78,30.01,10.0,NNE,4.6,-,N/A,,Clear,30,2012-11-05 07:54:00
10:54 PM,71.1,64.0,78,30.01,10.0,North,6.9,-,N/A,,Clear,10,2012-11-05 08:54:00
11:54 PM,71.1,64.0,78,30.01,9.0,North,8.1,-,N/A,,Clear,360,2012-11-05 09:54:00